Location: Clarion
(42.7316°N, 93.7330°W)
Time: 08:30:48
(UTC+00:00)

USA 59 Rocket - Pass Details

Date: 22 April 2026
Orbit: 367 x 1664 km, 63.3° (Epoch: 17 May)

Event Time Altitude Azimuth Distance (km) Brightness Sun altitude
Rises 02:23:58 0° 322° (NW) 2,416 4.5 -14.1°
Reaches altitude 10° 02:25:48 10° 321° (NW) 1,640 3.4 -14.4°
Maximum altitude 02:29:23 77° 235° (SW) 584 -0.1 -15.0°
Enters shadow 02:32:17 22° 152° (SSE) 1,424 1.4 -15.4°
